CZ-3B R/B (55687 NORAD) Tracking and Keplerian Element Data

This shows tracking and keplerian element data for the satellite.

Feedback or suggestion? Click here.




ElementValue
Catalog55687
NameCZ-3B R/B
Epoch Orbit16
Epoch Day61.40813264
Epoch Year2023
RAAN324.6419
Inclination27.9161
Eccentricity0.7217964
Argument of Perigee183.3818
Mean Anonmoly156.7142
Mean Motion2.38350335
Decay Rate-5.24E-06
L11 55687U 23023B 23061.40813264 -.00000524 00000+0 00000+0 0 9991
L22 55687 27.9161 324.6419 7217964 183.3818 156.7142 2.38350335 161



Live tracking and technical data element details for CZ-3B R/B (NORAD 55687). CZ-3B R/B can be tracked NOW for your location showing map with azimuth and elevation plus other details from your city location.







IsCatalogInMostPopularTable: catalog: 55687, numindb: 4
Update: records affected: 1



GetName: 55687 CZ-3B R/B

Hit Count: updated at: Wed, 22 Mar 2023 16:56:39 GMT